Regional Weather Roundup
Issued by NWS

Home | Current Version | Previous Version | Graphics & Text | Print | Product List | Glossary On
Versions: 1 2 3 4 5 6 7 8 9 10 11 12 13 14 15 16 17 18 19 20 21 22 23 24 25 26 27 28 29 30 31 32 33 34 35 36 37 38 39 40 41 42 43 44 45 46 47 48 49 50
000
ASUS44 KMEG 241910
RWRTN
TENNESSEE HOURLY STATE WEATHER ROUNDUP
NATIONAL WEATHER SERVICE MEMPHIS TN
200 PM CDT FRI APR 24 2015

TNZ002-004-019-021-049-052-054-088>092-242000-
WEST TENNESSEE

CITY           SKY/WX    TMP DP  RH WIND       PRES   REMARKS
MEMPHIS INTL   RAIN      61  50  67 CALM      30.00R
NWS MEMPHIS      N/A     62 N/A N/A MISG        N/A
JACKSON        CLOUDY    67  39  35 CALM      29.99F
DYERSBURG      CLOUDY    55  37  50 NE9       30.00F
UNION CITY     PTSUNNY   57  32  38 S5        30.02R
PARIS          PTSUNNY   63  30  29 E6        30.01S
LEXINGTON      PTSUNNY   66  30  26 E7        29.99F
SAVANNAH       CLOUDY    70  32  24 S3        30.00F
$$

TNZ008-025-027-028-033-062-065-066-242000-
NORTH MIDDLE TENNESSEE

CITY           SKY/WX    TMP DP  RH WIND       PRES   REMARKS
NASHVILLE      CLOUDY    65  26  23 E7        30.03F
CLARKSVILLE    CLOUDY    64  33  31 E10       30.02F
SMYRNA         CLOUDY    66  27  23 E6        30.04F
COOKEVILLE     SUNNY     68  28  22 CALM      30.03F
CROSSVILLE     PTSUNNY   64  19  17 CALM      30.05F
$$

TNZ061-075-076-078-094-096-097-242000-
SOUTH MIDDLE TENNESSEE

CITY           SKY/WX    TMP DP  RH WIND       PRES   REMARKS
FAYETTEVILLE     N/A     66  28  24 SE3       30.02F
TULLAHOMA      SUNNY     68  23  18 CALM      30.04F
WINCHESTER     SUNNY     70  36  28 VRB3      30.03S
MCMINNVILLE    SUNNY     64  30  27 NW3       30.03F
COLUMBIA       SUNNY     66  32  28 SE6       30.01F
SHELBYVILLE    SUNNY     66  34  30 E5        30.04F
$$

TNZ017-018-042-046-047-242000-
NORTHEAST TENNESSEE

CITY           SKY/WX    TMP DP  RH WIND       PRES   REMARKS
TRI CITIES     MOSUNNY   62  26  25 VRB3      30.07F
ELIZABETHTON   CLEAR     61  27  27 VRB6      30.06F
$$

TNZ012-013-036-069-073-074-242000-
CENTRAL EAST TENNESSEE

CITY           SKY/WX    TMP DP  RH WIND       PRES   REMARKS
KNOXVILLE      PTSUNNY   65  25  22 VRB7      30.04F
OAK RIDGE      MOSUNNY   66  26  22 CALM      30.06F
GATLINBURG     CLEAR     63  21  20 CALM      30.05F
MORRISTOWN     CLEAR     63  28  27 VRB7      30.06F
$$

TNZ083-085-099-242000-
SOUTHEAST TENNESSEE

CITY           SKY/WX    TMP DP  RH WIND       PRES   REMARKS
CHATTANOOGA    PTSUNNY   67  32  27 NW7       30.04F
$$

SKY/WX REPORTED AS FAIR MEANS FEW OR NO CLOUDS BELOW
12 THOUSAND FEET.



USA.gov is the U.S. government's official web portal to all federal, state and local government web resources and services.